Regional Weather Roundup
Issued by NWS

Home | Current Version | Previous Version | Graphics & Text | Print | Product List | Glossary Off
Versions: 1 2 3 4 5 6 7 8 9 10 11 12 13 14 15 16 17 18 19 20 21 22 23 24 25 26 27 28 29 30 31 32 33 34 35 36 37 38 39 40 41 42 43 44 45 46 47 48 49 50

000
ASUS43 KDMX 301607
RWRIA

WEATHER ROUNDUP FOR IOWA
NATIONAL WEATHER SERVICE DES MOINES IA
1100 AM CDT SAT AUG 30 2014

NOTE: "FAIR" INDICATES FEW OR NO CLOUDS BELOW 12,000 FEET WITH NO
SIGNIFICANT WEATHER AND/OR OBSTRUCTIONS TO VISIBILITY.

* - THESE STATIONS ARE NOT NWS STATIONS...THUS NOT UNDER NWS
QUALITY CONTROL.  THEY ALSO DO NOT REPORT WEATHER SUCH
AS PRECIPITATION OR FOG.

IAZ001>003-012>014-020>022-031>034-043>046-301700-
   NORTHWEST IOWA

CITY           SKY/WX    TMP DP  RH WIND       PRES   REMARKS
CARROLL *      CLOUDY    70  66  88 W7        29.93R
CHEROKEE *     CLOUDY    68  68 100 W7        29.93R
DENISON *      CLOUDY    68  68 100 W7        29.92S
LE MARS *      CLOUDY    66  61  82 W8        29.95R
ORANGE CITY *  CLOUDY    66  63  88 W8        29.94R
SHELDON *      MOSUNNY   70  66  88 VRB7      29.92R
SIOUX CITY     PTSUNNY   67  59  75 NW12      29.95R
SPENCER        CLOUDY    69  64  84 NW6       29.92R
STORM LAKE *   CLOUDY    68  68 100 NW9       29.93S
$$

IAZ055>058-069>071-079>083-090>094-301700-
   SOUTHWEST IOWA

CITY           SKY/WX    TMP DP  RH WIND       PRES   REMARKS
ATLANTIC *     CLOUDY    68  66  94 VRB6      29.94S FOG
AUDUBON *      CLOUDY    70  66  88 NW6       29.95S
CLARINDA *     SUNNY     75  70  83 W8        29.95S
COUNCIL BLFS * CLOUDY    66  66 100 NW6       29.95R FOG
CRESTON *      MOSUNNY   73  70  88 NW7       29.94S
HARLAN  *      CLOUDY    66  66 100 NW6       29.98S FOG
LAMONI         PTSUNNY   73  67  81 W6        29.94R
RED OAK *      CLOUDY    72  68  88 VRB5      29.95R
SHENANDOAH *   PTSUNNY   75  70  83 VRB6      29.95S
$$

IAZ047>049-059>061-072>074-084-301700-
   CENTRAL IOWA

CITY           SKY/WX    TMP DP  RH WIND       PRES   REMARKS
AMES           PTSUNNY   75  68  78 NW6       29.89S
ANKENY *       CLOUDY    73  68  83 W10       29.90R
CHARITON *     CLOUDY    72  68  88 NW9       29.92S
DES MOINES     PTSUNNY   75  66  73 NW9       29.90R
GRINNELL*      CLOUDY    70  64  83 W8        29.91R
KNOXVILLE *    CLOUDY    70  66  88 W9        29.90S
MARSHALLTOWN   CLOUDY    72  67  84 W9        29.88R
PELLA *        CLOUDY    70  66  88 W9        29.91S
PERRY *        CLOUDY    72  68  88 W8        29.92R
$$

IAZ004>006-015-016-023>025-035-036-301700-
   NORTH CENTRAL IOWA

CITY           SKY/WX    TMP DP  RH WIND       PRES   REMARKS
ALGONA *       CLOUDY    70  66  88 NW6       29.91R
CLARION *      CLOUDY    68  66  94 NW9G15    29.90R
ESTHERVILLE    CLOUDY    68  63  84 N9        29.92R
FORT DODGE *   CLOUDY    68  64  88 NW5       29.92R
MASON CITY     PTSUNNY   72  66  81 NW9       29.89S
FOREST CITY *  CLOUDY    72  70  94 NW8       29.89R
IOWA FALLS *   CLOUDY    70  64  83 W10       29.90R
$$

IAZ007>011-017>019-026>030-037>042-050>054-066-301700-
   NORTHEAST IOWA

CITY           SKY/WX    TMP DP  RH WIND       PRES   REMARKS
CEDAR RAPIDS   CLOUDY    71  67  87 W13       29.87R
CHARLES CITY * CLOUDY    72  66  83 W13       29.87R
CLINTON *      CLOUDY    72  66  83 W13       29.88S
DECORAH *      CLOUDY    72  66  83 W8        29.83S
DUBUQUE        PTSUNNY   73  67  81 W17       29.85R
MONTICELLO *   CLOUDY    73  68  83 W16       29.85R
OELWEIN *      CLOUDY    72  66  83 W12       29.87R
WATERLOO       CLOUDY    71  66  84 W9        29.86R
$$

IAZ064-065-067-068-078-301700-
   EAST CENTRAL IOWA

CITY           SKY/WX    TMP DP  RH WIND       PRES   REMARKS
DAVENPORT      PTSUNNY   74  67  78 W14       29.88R
IOWA CITY      CLOUDY    73  67  81 NW13      29.89R
MT. PLEASANT * MOSUNNY   79  66  65 W7        29.90R HX  81
MUSCATINE *    CLOUDY    77  68  73 W10       29.88R
QUAD CITIES    PTSUNNY   77  67  71 W9        29.87R
$$

IAZ062-063-075>077-085>089-095>099-301700-
   SOUTHEAST IOWA

CITY           SKY/WX    TMP DP  RH WIND       PRES   REMARKS
BURLINGTON     MOSUNNY   77  69  76 SW7       29.89S
FAIRFIELD *    MOSUNNY   77  68  73 W8        29.90R
FORT MADISON * MOSUNNY   79  70  73 W5        29.91R HX  81
KEOKUK *       MOSUNNY   79  70  73 W8G14     29.90R HX  81
OSKALOOSA *    CLOUDY    72  68  88 W10       29.91R
CENTERVILLE *  CLOUDY    72  68  88 W6        29.94R
OTTUMWA        CLOUDY    73  67  81 W9        29.90R
WASHINGTON *   PTSUNNY   77  70  78 W9        29.89R
$$

ABBREVIATIONS USED IN REMARKS
   TC - TEMPERATURES IN CELSIUS
  WCI - WIND CHILL INDEX
   HX - HEAT INDEX
  VSB - VISIBILITY
$$



USA.gov is the U.S. government's official web portal to all federal, state and local government web resources and services.